JES3075 SULS-SAEZ

Flight info

Callsign JES3075
Flight time 0h 45m
Altitude 24000
Route LUCIO UL405 UGIMI UGIMI6A
Aircraft A320/M-SDE3FGHIRWY/LB1

Departure

Time 2026-04-23 20:37
Airport Capitan Corbeta CA Curbelo International Airport (SULS)

Arrival

Time 2026-04-23 21:22
Airport Ezeiza International Airport - Ministro Pistarini (SAEZ)
Time Latitude Longitude Altitude Speed Heading
2026-04-23 20:19 -34.85966 -55.09895 101 ft 0 kts 161°
2026-04-23 20:28 -34.85956 -55.09900 101 ft 2 kts 163°
2026-04-23 20:28 -34.85940 -55.09906 100 ft 2 kts 162°
2026-04-23 20:28 -34.85925 -55.09914 100 ft 2 kts 120°
2026-04-23 20:28 -34.85920 -55.09933 101 ft 2 kts 88°
2026-04-23 20:29 -34.85921 -55.09951 101 ft 1 kts 76°
2026-04-23 20:29 -34.85922 -55.09956 101 ft 0 kts 74°
2026-04-23 20:32 -34.85922 -55.09954 101 ft 2 kts 74°
2026-04-23 20:32 -34.85912 -55.09917 101 ft 7 kts 72°
2026-04-23 20:32 -34.85884 -55.09852 101 ft 10 kts 26°
2026-04-23 20:32 -34.85814 -55.09857 101 ft 12 kts 326°
2026-04-23 20:33 -34.85766 -55.09877 101 ft 2 kts 350°
2026-04-23 20:33 -34.85739 -55.09884 101 ft 6 kts 343°
2026-04-23 20:33 -34.85683 -55.09907 102 ft 10 kts 335°
2026-04-23 20:33 -34.85671 -55.09995 101 ft 15 kts 235°
2026-04-23 20:34 -34.85702 -55.10130 100 ft 20 kts 251°
2026-04-23 20:34 -34.85753 -55.10312 99 ft 25 kts 252°
2026-04-23 20:34 -34.85812 -55.10531 99 ft 29 kts 251°
2026-04-23 20:34 -34.85881 -55.10777 101 ft 32 kts 250°
2026-04-23 20:35 -34.85927 -55.10947 99 ft 12 kts 252°
2026-04-23 20:35 -34.85951 -55.11059 100 ft 16 kts 250°
2026-04-23 20:35 -34.85998 -55.11146 100 ft 10 kts 211°
2026-04-23 20:35 -34.86005 -55.11191 100 ft 5 kts 332°
2026-04-23 20:36 -34.85982 -55.11167 100 ft 6 kts 58°
2026-04-23 20:36 -34.85972 -55.11138 100 ft 1 kts 68°
2026-04-23 20:36 -34.85942 -55.11028 99 ft 51 kts 72°
2026-04-23 20:36 -34.85722 -55.10222 100 ft 141 kts 72°
2026-04-23 20:37 -34.85399 -55.08920 467 ft 173 kts 74°
2026-04-23 20:37 -34.85022 -55.07449 1179 ft 184 kts 73°
2026-04-23 20:37 -34.84633 -55.05946 2116 ft 189 kts 68°
2026-04-23 20:37 -34.83706 -55.04890 2913 ft 196 kts 18°
2026-04-23 20:38 -34.82313 -55.04782 3560 ft 210 kts 341°
2026-04-23 20:38 -34.81135 -55.05868 4248 ft 225 kts 306°
2026-04-23 20:38 -34.79829 -55.07133 4977 ft 254 kts 316°
2026-04-23 20:38 -34.78904 -55.08977 5937 ft 270 kts 292°
2026-04-23 20:39 -34.78636 -55.11521 5130 ft 340 kts 257°
2026-04-23 20:39 -34.79611 -55.14083 6438 ft 328 kts 235°
2026-04-23 20:39 -34.80999 -55.16096 7453 ft 296 kts 232°
2026-04-23 20:39 -34.82334 -55.17981 8771 ft 288 kts 231°
2026-04-23 20:40 -34.83630 -55.19794 10324 ft 283 kts 231°
2026-04-23 20:40 -34.84923 -55.21704 11074 ft 304 kts 237°
2026-04-23 20:40 -34.86000 -55.24052 11560 ft 329 kts 246°
2026-04-23 20:40 -34.86892 -55.26685 12119 ft 348 kts 250°
2026-04-23 20:41 -34.87702 -55.29501 13029 ft 355 kts 251°
2026-04-23 20:41 -34.88496 -55.32375 14025 ft 360 kts 251°
2026-04-23 20:41 -34.89315 -55.35272 14925 ft 363 kts 251°
2026-04-23 20:41 -34.90174 -55.38177 15821 ft 366 kts 250°
2026-04-23 20:42 -34.91069 -55.41096 16638 ft 369 kts 250°
2026-04-23 20:42 -34.91991 -55.44035 17474 ft 372 kts 250°
2026-04-23 20:42 -34.92926 -55.46992 18328 ft 375 kts 250°
2026-04-23 20:42 -34.93871 -55.49971 19108 ft 378 kts 250°
2026-04-23 20:43 -34.94819 -55.52963 19922 ft 379 kts 250°
2026-04-23 20:43 -34.95745 -55.55925 20760 ft 379 kts 252°
2026-04-23 20:43 -34.96253 -55.59059 21531 ft 378 kts 267°
2026-04-23 20:43 -34.96342 -55.62263 22321 ft 378 kts 268°
2026-04-23 20:44 -34.96412 -55.65464 23078 ft 378 kts 269°
2026-04-23 20:44 -34.96476 -55.68674 23796 ft 379 kts 269°
2026-04-23 20:44 -34.96536 -55.71883 24073 ft 378 kts 269°
2026-04-23 20:44 -34.96593 -55.75093 24156 ft 383 kts 269°
2026-04-23 20:45 -34.96651 -55.78397 24187 ft 395 kts 269°
2026-04-23 20:45 -34.96711 -55.81759 24189 ft 398 kts 269°
2026-04-23 20:45 -34.96774 -55.85136 24190 ft 399 kts 269°
2026-04-23 20:45 -34.96837 -55.88512 24181 ft 399 kts 269°
2026-04-23 20:46 -34.96901 -55.91901 24191 ft 399 kts 269°
2026-04-23 20:46 -34.96962 -55.95283 24193 ft 399 kts 269°
2026-04-23 20:46 -34.97020 -55.98670 24193 ft 399 kts 269°
2026-04-23 20:46 -34.97078 -56.02050 24193 ft 399 kts 269°
2026-04-23 20:47 -34.97134 -56.05438 24194 ft 399 kts 269°
2026-04-23 20:47 -34.97189 -56.08774 24191 ft 399 kts 269°
2026-04-23 20:47 -34.97247 -56.12156 24184 ft 399 kts 269°
2026-04-23 20:47 -34.97306 -56.15542 24185 ft 399 kts 269°
2026-04-23 20:48 -34.97362 -56.18926 24182 ft 399 kts 269°
2026-04-23 20:48 -34.97416 -56.22310 24181 ft 399 kts 269°
2026-04-23 20:48 -34.97470 -56.25695 24179 ft 399 kts 269°
2026-04-23 20:48 -34.97522 -56.29078 24180 ft 399 kts 269°
2026-04-23 20:49 -34.97573 -56.32463 24169 ft 399 kts 269°
2026-04-23 20:49 -34.97622 -56.35853 24176 ft 399 kts 269°
2026-04-23 20:49 -34.97671 -56.39239 24162 ft 399 kts 269°
2026-04-23 20:49 -34.97719 -56.42622 24170 ft 400 kts 269°
2026-04-23 20:50 -34.97767 -56.46009 24164 ft 400 kts 269°
2026-04-23 20:50 -34.97816 -56.49397 24158 ft 400 kts 269°
2026-04-23 20:50 -34.97861 -56.52785 24156 ft 400 kts 269°
2026-04-23 20:50 -34.97906 -56.56174 24154 ft 400 kts 269°
2026-04-23 20:51 -34.97950 -56.59565 24158 ft 400 kts 270°
2026-04-23 20:51 -34.97990 -56.62912 24146 ft 400 kts 270°
2026-04-23 20:51 -34.98029 -56.66305 24152 ft 400 kts 270°
2026-04-23 20:51 -34.98070 -56.69703 24155 ft 400 kts 270°
2026-04-23 20:52 -34.98111 -56.73096 24158 ft 400 kts 270°
2026-04-23 20:52 -34.98150 -56.76487 24155 ft 400 kts 270°
2026-04-23 20:52 -34.98185 -56.79881 24154 ft 400 kts 270°
2026-04-23 20:52 -34.98222 -56.83297 24159 ft 401 kts 270°
2026-04-23 20:53 -34.98260 -56.86700 24157 ft 401 kts 270°
2026-04-23 20:53 -34.98295 -56.90094 24164 ft 400 kts 270°
2026-04-23 20:53 -34.98301 -56.93488 24156 ft 400 kts 270°
2026-04-23 20:53 -34.98284 -56.96862 24150 ft 400 kts 271°
2026-04-23 20:54 -34.98258 -57.00235 24152 ft 400 kts 271°
2026-04-23 20:54 -34.98228 -57.03652 24151 ft 400 kts 271°
2026-04-23 20:54 -34.98204 -57.07017 24151 ft 400 kts 271°
2026-04-23 20:54 -34.98186 -57.10410 24148 ft 400 kts 271°
2026-04-23 20:55 -34.98169 -57.13805 24151 ft 400 kts 271°
2026-04-23 20:55 -34.98153 -57.17197 24148 ft 400 kts 271°
2026-04-23 20:55 -34.98137 -57.20592 24141 ft 400 kts 271°
2026-04-23 20:55 -34.98121 -57.23990 24146 ft 400 kts 271°
2026-04-23 20:56 -34.98104 -57.27380 24144 ft 400 kts 271°
2026-04-23 20:56 -34.98088 -57.30775 24147 ft 400 kts 271°
2026-04-23 20:56 -34.98072 -57.34166 24144 ft 400 kts 271°
2026-04-23 20:56 -34.98052 -57.37567 24143 ft 401 kts 271°
2026-04-23 20:57 -34.98028 -57.40966 24140 ft 401 kts 271°
2026-04-23 20:57 -34.98002 -57.44368 24143 ft 401 kts 271°
2026-04-23 20:57 -34.97977 -57.47772 24146 ft 402 kts 271°
2026-04-23 20:57 -34.97950 -57.51182 24149 ft 402 kts 271°
2026-04-23 20:58 -34.97922 -57.54546 24138 ft 403 kts 271°
2026-04-23 20:58 -34.97890 -57.57983 23916 ft 406 kts 271°
2026-04-23 20:58 -34.97858 -57.61454 23684 ft 406 kts 271°
2026-04-23 20:58 -34.97826 -57.64855 23421 ft 406 kts 271°
2026-04-23 20:59 -34.97794 -57.68288 23153 ft 405 kts 271°
2026-04-23 20:59 -34.97763 -57.71741 22893 ft 405 kts 271°
2026-04-23 20:59 -34.97733 -57.75190 22633 ft 404 kts 271°
2026-04-23 20:59 -34.97701 -57.78616 22367 ft 404 kts 271°
2026-04-23 21:00 -34.97669 -57.82021 21872 ft 397 kts 271°
2026-04-23 21:00 -34.97634 -57.85298 21656 ft 375 kts 271°
2026-04-23 21:00 -34.97600 -57.88347 21531 ft 355 kts 271°
2026-04-23 21:00 -34.97464 -57.91273 21401 ft 337 kts 280°
2026-04-23 21:01 -34.96709 -57.93907 21275 ft 324 kts 296°
2026-04-23 21:01 -34.95354 -57.96045 21151 ft 316 kts 312°
2026-04-23 21:01 -34.93555 -57.97545 21025 ft 313 kts 329°
2026-04-23 21:01 -34.91477 -57.98301 20900 ft 313 kts 345°
2026-04-23 21:02 -34.89300 -57.98253 20773 ft 316 kts
2026-04-23 21:02 -34.87213 -57.97379 20645 ft 321 kts 21°
2026-04-23 21:02 -34.85426 -57.95740 20516 ft 324 kts 41°
2026-04-23 21:02 -34.84128 -57.93489 20343 ft 328 kts 61°
2026-04-23 21:03 -34.83487 -57.90820 20097 ft 330 kts 82°
2026-04-23 21:03 -34.83347 -57.88056 19867 ft 330 kts 88°
2026-04-23 21:03 -34.83338 -57.85198 19630 ft 339 kts 90°
2026-04-23 21:03 -34.83390 -57.82352 19513 ft 339 kts 91°
2026-04-23 21:04 -34.83457 -57.79458 19525 ft 340 kts 91°
2026-04-23 21:04 -34.83586 -57.76579 19524 ft 341 kts 100°
2026-04-23 21:04 -34.84311 -57.73896 19529 ft 338 kts 121°
2026-04-23 21:04 -34.85689 -57.71632 19528 ft 331 kts 141°
2026-04-23 21:05 -34.87541 -57.70060 19533 ft 321 kts 161°
2026-04-23 21:05 -34.89634 -57.69291 19528 ft 310 kts 180°
2026-04-23 21:05 -34.91744 -57.69321 19529 ft 299 kts 197°
2026-04-23 21:05 -34.93690 -57.70069 19533 ft 289 kts 213°
2026-04-23 21:06 -34.95329 -57.71409 19533 ft 280 kts 228°
2026-04-23 21:06 -34.96557 -57.73182 19534 ft 274 kts 243°
2026-04-23 21:06 -34.97329 -57.75310 19511 ft 287 kts 259°
2026-04-23 21:06 -34.97511 -57.77868 19456 ft 320 kts 269°
2026-04-23 21:07 -34.97554 -57.80721 19390 ft 352 kts 270°
2026-04-23 21:07 -34.97572 -57.83797 19308 ft 369 kts 270°
2026-04-23 21:07 -34.97581 -57.86953 19230 ft 374 kts 270°
2026-04-23 21:07 -34.97396 -57.90116 19144 ft 375 kts 278°
2026-04-23 21:08 -34.96823 -57.93222 18468 ft 376 kts 285°
2026-04-23 21:08 -34.96096 -57.96292 17491 ft 377 kts 285°
2026-04-23 21:08 -34.95360 -57.99358 16624 ft 375 kts 285°
2026-04-23 21:08 -34.94629 -58.02395 15798 ft 372 kts 285°
2026-04-23 21:09 -34.93903 -58.05414 15010 ft 369 kts 284°
2026-04-23 21:09 -34.93188 -58.08407 14232 ft 366 kts 284°
2026-04-23 21:09 -34.92477 -58.11398 13374 ft 363 kts 284°
2026-04-23 21:09 -34.91787 -58.14314 12557 ft 359 kts 284°
2026-04-23 21:10 -34.91095 -58.17235 11712 ft 356 kts 284°
2026-04-23 21:10 -34.90420 -58.20082 11146 ft 347 kts 284°
2026-04-23 21:10 -34.89766 -58.22824 11014 ft 326 kts 284°
2026-04-23 21:10 -34.89146 -58.25410 10891 ft 310 kts 284°
2026-04-23 21:11 -34.88744 -58.27084 10813 ft 300 kts 284°
2026-04-23 21:11 -34.88319 -58.28844 10728 ft 290 kts 284°
2026-04-23 21:11 -34.87765 -58.31162 10504 ft 282 kts 284°
2026-04-23 21:11 -34.87226 -58.33431 10269 ft 276 kts 284°
2026-04-23 21:12 -34.86693 -58.35670 10072 ft 274 kts 284°
2026-04-23 21:12 -34.86158 -58.37917 9948 ft 275 kts 284°
2026-04-23 21:12 -34.85628 -58.40133 9818 ft 275 kts 284°
2026-04-23 21:12 -34.85092 -58.42374 9688 ft 274 kts 284°
2026-04-23 21:13 -34.84561 -58.44584 9561 ft 274 kts 285°
2026-04-23 21:13 -34.84018 -58.46837 9135 ft 279 kts 285°
2026-04-23 21:13 -34.83474 -58.49103 8746 ft 277 kts 284°
2026-04-23 21:13 -34.82932 -58.51357 8340 ft 277 kts 285°
2026-04-23 21:14 -34.82536 -58.53609 7931 ft 275 kts 274°
2026-04-23 21:14 -34.82605 -58.55923 7529 ft 274 kts 263°
2026-04-23 21:14 -34.82816 -58.58222 7129 ft 273 kts 263°
2026-04-23 21:14 -34.83021 -58.60521 6761 ft 273 kts 263°
2026-04-23 21:15 -34.83224 -58.62806 6375 ft 272 kts 263°
2026-04-23 21:15 -34.83428 -58.65102 5970 ft 272 kts 263°
2026-04-23 21:15 -34.83629 -58.67406 5351 ft 278 kts 263°
2026-04-23 21:15 -34.83830 -58.69746 4608 ft 276 kts 263°
2026-04-23 21:16 -34.84027 -58.72055 3907 ft 272 kts 263°
2026-04-23 21:16 -34.84217 -58.74298 3513 ft 258 kts 264°
2026-04-23 21:16 -34.84344 -58.76373 3425 ft 233 kts 274°
2026-04-23 21:16 -34.83864 -58.78149 3377 ft 219 kts 304°
2026-04-23 21:17 -34.82765 -58.79379 3326 ft 215 kts 333°
2026-04-23 21:17 -34.81324 -58.79808 3279 ft 216 kts
2026-04-23 21:17 -34.79898 -58.79350 3230 ft 207 kts 30°
2026-04-23 21:17 -34.78863 -58.78195 3190 ft 201 kts 57°
2026-04-23 21:18 -34.78376 -58.76650 3143 ft 198 kts 83°
2026-04-23 21:18 -34.78466 -58.74989 3103 ft 198 kts 100°
2026-04-23 21:18 -34.78691 -58.73339 3060 ft 198 kts 99°
2026-04-23 21:18 -34.78952 -58.71707 2795 ft 197 kts 101°
2026-04-23 21:19 -34.79242 -58.70087 2484 ft 195 kts 102°
2026-04-23 21:19 -34.79537 -58.68479 2226 ft 195 kts 102°
2026-04-23 21:19 -34.79829 -58.66872 2002 ft 191 kts 101°
2026-04-23 21:19 -34.80097 -58.65391 1769 ft 167 kts 101°
2026-04-23 21:20 -34.80335 -58.64077 1551 ft 153 kts 101°
2026-04-23 21:20 -34.80557 -58.62844 1353 ft 147 kts 100°
2026-04-23 21:20 -34.80773 -58.61640 1159 ft 144 kts 101°
2026-04-23 21:20 -34.80987 -58.60454 968 ft 143 kts 100°
2026-04-23 21:21 -34.81209 -58.59277 769 ft 142 kts 102°
2026-04-23 21:21 -34.81406 -58.58106 569 ft 141 kts 98°
2026-04-23 21:21 -34.81602 -58.56943 402 ft 141 kts 103°
2026-04-23 21:21 -34.81818 -58.55802 180 ft 138 kts 102°
2026-04-23 21:22 -34.82018 -58.54678 87 ft 127 kts 102°
2026-04-23 21:22 -34.82181 -58.53778 81 ft 82 kts 102°
2026-04-23 21:22 -34.82281 -58.53231 82 ft 53 kts 103°
2026-04-23 21:22 -34.82335 -58.52946 83 ft 25 kts 98°
2026-04-23 21:23 -34.82223 -58.52904 86 ft 21 kts
2026-04-23 21:23 -34.82086 -58.52961 82 ft 10 kts 351°
2026-04-23 21:23 -34.82073 -58.52965 83 ft 4 kts 341°
2026-04-23 21:23 -34.82025 -58.52979 81 ft 20 kts 353°
2026-04-23 21:24 -34.81826 -58.53047 82 ft 18 kts 341°
2026-04-23 21:24 -34.81722 -58.53085 82 ft 17 kts 343°
2026-04-23 21:24 -34.81593 -58.53131 83 ft 15 kts 338°
2026-04-23 21:24 -34.81535 -58.53199 81 ft 10 kts 304°
2026-04-23 21:25 -34.81493 -58.53290 75 ft 16 kts 298°
2026-04-23 21:25 -34.81443 -58.53401 71 ft 15 kts 299°
2026-04-23 21:25 -34.81421 -58.53450 76 ft 5 kts 298°
2026-04-23 21:25 -34.81387 -58.53528 68 ft 9 kts 293°
2026-04-23 21:26 -34.81387 -58.53573 76 ft 9 kts 252°
2026-04-23 21:26 -34.81395 -58.53651 69 ft 9 kts 306°
2026-04-23 21:26 -34.81372 -58.53685 70 ft 3 kts 309°
2026-04-23 21:26 -34.81360 -58.53705 75 ft 0 kts 309°